�������l�o���
Date,Time,MP-1(��Sv/h),MP-2(��Sv/h),MP-3(��Sv/h),MP-4(��Sv/h),MP-5(��Sv/h),MP-6(��Sv/h),MP-7(��Sv/h),MP-8(��Sv/h),����,����(m/s),���J
2021/03/31,00:00,0.631,0.926,0.588,1.136,0.803,0.373,0.650,0.612,�k�k��,4.4,�L
2021/03/31,00:10,0.631,0.926,0.588,1.137,0.804,0.372,0.654,0.614,�k�k��,5.9,�L
2021/03/31,00:20,0.629,0.926,0.588,1.135,0.805,0.372,0.652,0.614,�k�k��,6.4,�L
2021/03/31,00:30,0.631,0.924,0.587,1.135,0.806,0.375,0.652,0.614,�k�k��,7.1,�L
2021/03/31,00:40,0.631,0.924,0.588,1.138,0.804,0.373,0.653,0.614,�k�k��,7.8,�L
2021/03/31,00:50,0.630,0.926,0.587,1.137,0.806,0.373,0.652,0.614,�k�k��,7.4,�L
2021/03/31,01:00,0.632,0.925,0.587,1.137,0.806,0.374,0.652,0.613,�k�k��,7.2,��
2021/03/31,01:10,0.631,0.926,0.588,1.135,0.804,0.372,0.653,0.616,�k��,6.1,��
2021/03/31,01:20,0.632,0.927,0.588,1.137,0.806,0.373,0.650,0.611,�k�k��,7.7,��
2021/03/31,01:30,0.635,0.925,0.588,1.137,0.804,0.373,0.652,0.613,�k��,6.5,�L
2021/03/31,01:40,0.624,0.905,0.579,1.117,0.781,0.373,0.647,0.612,�k��,6.6,�L
2021/03/31,01:50,0.616,0.895,0.579,1.103,0.782,0.373,0.645,0.609,�k��,9.7,�L
2021/03/31,02:00,0.620,0.897,0.579,1.107,0.783,0.371,0.645,0.608,�k��,7.5,�L
2021/03/31,02:10,0.617,0.895,0.578,1.108,0.783,0.372,0.645,0.607,�k��,6.0,�L
2021/03/31,02:20,0.620,0.897,0.580,1.108,0.785,0.372,0.645,0.608,�k��,3.8,�L
2021/03/31,02:30,0.620,0.897,0.580,1.107,0.784,0.373,0.645,0.609,�k,8.7,�L
2021/03/31,02:40,0.620,0.899,0.580,1.108,0.785,0.373,0.645,0.607,�k,6.8,�L
2021/03/31,02:50,0.621,0.896,0.578,1.109,0.785,0.373,0.646,0.610,�k,5.6,�L
2021/03/31,03:00,0.621,0.899,0.577,1.108,0.785,0.373,0.644,0.610,�k�k��,5.8,��
2021/03/31,03:10,0.618,0.898,0.580,1.109,0.782,0.371,0.647,0.607,�k�k��,5.4,��
2021/03/31,03:20,0.619,0.898,0.578,1.107,0.785,0.370,0.647,0.609,�k,5.5,��
2021/03/31,03:30,0.617,0.900,0.577,1.107,0.783,0.371,0.645,0.609,�k,4.0,��
2021/03/31,03:40,0.618,0.899,0.575,1.106,0.783,0.371,0.647,0.609,�k�k��,3.8,��
2021/03/31,03:50,0.617,0.898,0.574,1.106,0.782,0.369,0.645,0.610,�k�k��,6.6,��
2021/03/31,04:00,0.617,0.899,0.576,1.105,0.783,0.370,0.646,0.607,�k��,8.4,��
2021/03/31,04:10,0.617,0.899,0.575,1.106,0.783,0.370,0.648,0.608,�k��,9.0,��
2021/03/31,04:20,0.615,0.897,0.573,1.108,0.783,0.368,0.648,0.609,�k��,9.5,��
2021/03/31,04:30,0.615,0.897,0.574,1.105,0.782,0.369,0.645,0.608,�k�k��,8.3,��
2021/03/31,04:40,0.615,0.896,0.573,1.106,0.782,0.368,0.646,0.609,�k�k��,6.9,��
2021/03/31,04:50,0.614,0.897,0.574,1.105,0.783,0.368,0.646,0.608,�k�k��,7.2,��
2021/03/31,05:00,0.614,0.896,0.572,1.106,0.782,0.369,0.646,0.608,�k�k��,7.8,��
2021/03/31,05:10,0.615,0.895,0.573,1.107,0.784,0.367,0.646,0.607,�k�k��,8.0,��
2021/03/31,05:20,0.614,0.896,0.574,1.106,0.781,0.368,0.647,0.610,�k�k��,8.0,��
2021/03/31,05:30,0.613,0.898,0.572,1.107,0.781,0.369,0.647,0.608,�k�k��,7.0,��
2021/03/31,05:40,0.615,0.898,0.574,1.107,0.781,0.368,0.647,0.609,�k�k��,7.2,��
2021/03/31,05:50,0.615,0.896,0.575,1.108,0.781,0.367,0.645,0.610,�k�k��,8.4,��
2021/03/31,06:00,0.614,0.897,0.574,1.107,0.782,0.368,0.650,0.608,�k�k��,7.3,��
2021/03/31,06:10,0.614,0.897,0.575,1.107,0.783,0.369,0.647,0.606,�k�k��,7.7,��
2021/03/31,06:20,0.616,0.896,0.573,1.110,0.780,0.368,0.648,0.609,�k�k��,6.4,��
2021/03/31,06:30,0.617,0.898,0.574,1.107,0.782,0.368,0.647,0.610,�k�k��,6.5,��
2021/03/31,06:40,0.616,0.897,0.573,1.109,0.782,0.368,0.647,0.607,�k�k��,7.3,��
2021/03/31,06:50,0.615,0.898,0.575,1.110,0.782,0.368,0.647,0.609,�k�k��,7.2,��
2021/03/31,07:00,0.615,0.901,0.574,1.110,0.782,0.369,0.647,0.609,�k��,5.9,��
2021/03/31,07:10,0.615,0.901,0.574,1.111,0.780,0.368,0.649,0.607,�k�k��,5.7,��
2021/03/31,07:20,0.616,0.899,0.574,1.108,0.784,0.369,0.648,0.610,�k�k��,4.7,��
2021/03/31,07:30,0.615,0.898,0.575,1.111,0.784,0.369,0.649,0.610,�k�k��,6.1,��
2021/03/31,07:40,0.618,0.900,0.575,1.110,0.785,0.368,0.648,0.608,�k��,6.8,��
2021/03/31,07:50,0.616,0.898,0.576,1.110,0.786,0.368,0.647,0.608,�k�k��,6.9,��
2021/03/31,08:00,0.618,0.901,0.576,1.113,0.784,0.368,0.647,0.609,�k�k��,7.3,��
2021/03/31,08:10,0.619,0.898,0.575,1.115,0.785,0.367,0.647,0.608,�k�k��,7.7,��
2021/03/31,08:20,0.617,0.898,0.575,1.113,0.788,0.366,0.646,0.610,�k�k��,6.3,��
2021/03/31,08:30,0.618,0.899,0.577,1.112,0.785,0.367,0.646,0.610,�k�k��,6.6,��
2021/03/31,08:40,0.621,0.900,0.576,1.115,0.787,0.367,0.647,0.610,�k�k��,6.7,��
2021/03/31,08:50,0.620,0.900,0.577,1.114,0.787,0.366,0.646,0.609,�k��,6.6,��
2021/03/31,09:00,0.619,0.898,0.576,1.115,0.786,0.369,0.647,0.609,�k��,7.8,��
2021/03/31,09:10,0.620,0.902,0.577,1.114,0.786,0.367,0.647,0.609,�k�k��,9.2,��
2021/03/31,09:20,0.619,0.901,0.574,1.119,0.787,0.367,0.648,0.608,�k�k��,8.1,��
2021/03/31,09:30,0.620,0.900,0.577,1.117,0.789,0.368,0.648,0.608,�k��,7.4,��
2021/03/31,09:40,0.619,0.902,0.577,1.117,0.789,0.367,0.648,0.608,�k�k��,9.5,��
2021/03/31,09:50,0.620,0.902,0.580,1.118,0.789,0.368,0.649,0.607,�k�k��,10.3,��
2021/03/31,10:00,0.619,0.903,0.578,1.119,0.789,0.367,0.648,0.608,�k�k��,7.4,��
2021/03/31,10:10,0.621,0.906,0.578,1.118,0.788,0.369,0.648,0.608,�k�k��,8.1,��
2021/03/31,10:20,0.623,0.906,0.578,1.120,0.790,0.370,0.649,0.610,�k�k��,7.7,��
2021/03/31,10:30,0.622,0.905,0.579,1.119,0.789,0.369,0.649,0.608,�k�k��,6.6,��
2021/03/31,10:40,0.622,0.909,0.579,1.117,0.790,0.369,0.649,0.609,�k�k��,6.0,��
2021/03/31,10:50,0.621,0.906,0.577,1.120,0.791,0.368,0.648,0.610,�k�k��,5.9,��
2021/03/31,11:00,0.622,0.907,0.578,1.121,0.790,0.369,0.649,0.608,�k�k��,7.4,��
2021/03/31,11:10,0.623,0.911,0.579,1.121,0.790,0.369,0.649,0.611,�k�k��,8.8,��
2021/03/31,11:20,0.622,0.909,0.579,1.120,0.792,0.368,0.647,0.609,�k�k��,8.2,��
2021/03/31,11:30,0.621,0.909,0.578,1.122,0.792,0.369,0.649,0.609,�k�k��,8.2,��
2021/03/31,11:40,0.623,0.909,0.578,1.123,0.794,0.368,0.648,0.609,�k�k��,7.6,��
2021/03/31,11:50,0.621,0.912,0.580,1.123,0.794,0.367,0.648,0.608,�k�k��,8.4,��
2021/03/31,12:00,0.623,0.910,0.581,1.123,0.794,0.368,0.648,0.608,�k�k��,7.4,��
2021/03/31,12:10,0.622,0.911,0.579,1.122,0.794,0.368,0.648,0.611,�k�k��,8.3,��
2021/03/31,12:20,0.622,0.911,0.580,1.122,0.795,0.368,0.649,0.609,�k�k��,7.5,��
2021/03/31,12:30,0.621,0.911,0.580,1.122,0.793,0.369,0.649,0.609,�k�k��,8.0,��
2021/03/31,12:40,0.623,0.910,0.578,1.120,0.794,0.369,0.649,0.610,�k�k��,8.2,��
2021/03/31,12:50,0.623,0.912,0.581,1.123,0.796,0.369,0.651,0.609,�k�k��,7.4,��
2021/03/31,13:00,0.623,0.912,0.581,1.120,0.794,0.369,0.649,0.608,�k�k��,7.8,��
2021/03/31,13:10,0.625,0.910,0.581,1.124,0.795,0.370,0.650,0.610,�k�k��,7.2,��
2021/03/31,13:20,0.625,0.910,0.581,1.126,0.797,0.370,0.649,0.610,�k�k��,7.1,��
2021/03/31,13:30,0.624,0.911,0.581,1.123,0.797,0.371,0.649,0.611,�k�k��,8.6,��
2021/03/31,13:40,0.624,0.909,0.581,1.125,0.796,0.368,0.649,0.609,�k�k��,8.3,��
2021/03/31,13:50,0.625,0.911,0.582,1.123,0.798,0.369,0.652,0.610,�k�k��,8.6,��
2021/03/31,14:00,0.625,0.912,0.580,1.124,0.797,0.370,0.649,0.609,�k�k��,8.4,��
2021/03/31,14:10,0.625,0.911,0.583,1.125,0.796,0.370,0.649,0.611,�k�k��,8.0,��
2021/03/31,14:20,0.624,0.911,0.580,1.126,0.798,0.370,0.648,0.610,�k��,7.3,��
2021/03/31,14:30,0.625,0.912,0.580,1.124,0.798,0.370,0.650,0.609,�k�k��,8.5,��
2021/03/31,14:40,0.626,0.910,0.583,1.127,0.796,0.369,0.650,0.609,�k�k��,6.5,��
2021/03/31,14:50,0.625,0.911,0.580,1.126,0.797,0.369,0.650,0.611,�k��,6.7,��
2021/03/31,15:00,0.624,0.910,0.582,1.126,0.798,0.370,0.650,0.610,�k�k��,6.8,��
2021/03/31,15:10,0.626,0.912,0.582,1.124,0.799,0.371,0.650,0.609,�k��,6.9,��
2021/03/31,15:20,0.624,0.912,0.581,1.125,0.798,0.370,0.652,0.610,�k��,6.9,��
2021/03/31,15:30,0.625,0.914,0.582,1.126,0.799,0.370,0.650,0.610,�k�k��,5.4,��
2021/03/31,15:40,0.626,0.912,0.582,1.127,0.799,0.371,0.651,0.609,�k�k��,3.7,��
2021/03/31,15:50,0.624,0.912,0.581,1.129,0.797,0.368,0.651,0.608,�k,2.6,��
2021/03/31,16:00,0.623,0.912,0.582,1.127,0.797,0.371,0.650,0.608,�k�k��,3.1,��
2021/03/31,16:10,0.626,0.912,0.582,1.125,0.798,0.372,0.651,0.609,�k�k��,3.9,��
2021/03/31,16:20,0.626,0.914,0.583,1.125,0.799,0.372,0.651,0.610,�k�k��,5.4,��
2021/03/31,16:30,0.624,0.914,0.583,1.124,0.798,0.372,0.649,0.610,�k�k��,5.5,��
2021/03/31,16:40,0.624,0.914,0.582,1.124,0.798,0.372,0.651,0.608,�k,5.7,��
2021/03/31,16:50,0.623,0.915,0.581,1.125,0.799,0.371,0.649,0.611,�k,5.7,��
2021/03/31,17:00,0.624,0.914,0.581,1.127,0.797,0.373,0.651,0.610,�k�k��,5.8,��
2021/03/31,17:10,0.625,0.915,0.581,1.125,0.799,0.372,0.651,0.610,�k,5.8,��
2021/03/31,17:20,0.624,0.917,0.584,1.126,0.797,0.371,0.650,0.613,�k,6.7,��
2021/03/31,17:30,0.624,0.915,0.582,1.126,0.798,0.372,0.649,0.613,�k�k��,6.8,��
2021/03/31,17:40,0.624,0.919,0.581,1.127,0.797,0.372,0.650,0.612,�k�k��,6.6,��
2021/03/31,17:50,0.626,0.918,0.582,1.127,0.800,0.371,0.650,0.614,�k�k��,6.5,��
2021/03/31,18:00,0.625,0.916,0.583,1.126,0.799,0.371,0.650,0.611,�k�k��,5.6,��
2021/03/31,18:10,0.628,0.917,0.582,1.124,0.799,0.373,0.650,0.612,�k�k��,3.4,��
2021/03/31,18:20,0.627,0.917,0.583,1.129,0.799,0.371,0.650,0.613,�k��,2.3,��
2021/03/31,18:30,0.626,0.918,0.584,1.127,0.801,0.372,0.652,0.612,���k��,1.2,��
2021/03/31,18:40,0.628,0.918,0.584,1.128,0.801,0.372,0.651,0.612,�k��,2.0,��
2021/03/31,18:50,0.627,0.918,0.584,1.126,0.800,0.371,0.651,0.612,�k�k��,3.3,��
2021/03/31,19:00,0.625,0.919,0.584,1.127,0.802,0.372,0.652,0.611,�k,3.9,��
2021/03/31,19:10,0.626,0.919,0.584,1.127,0.801,0.372,0.651,0.609,�k�k��,3.9,��
2021/03/31,19:20,0.626,0.916,0.583,1.128,0.797,0.369,0.652,0.612,�k,2.8,��
2021/03/31,19:30,0.626,0.917,0.582,1.127,0.799,0.372,0.652,0.610,�k�k��,3.3,��
2021/03/31,19:40,0.625,0.918,0.583,1.128,0.800,0.371,0.651,0.611,�k��,3.3,��
2021/03/31,19:50,0.623,0.917,0.585,1.126,0.801,0.369,0.652,0.610,�k��,3.4,��
2021/03/31,20:00,0.625,0.917,0.584,1.128,0.800,0.371,0.652,0.611,�k��,1.2,��
2021/03/31,20:10,0.626,0.915,0.583,1.127,0.799,0.371,0.652,0.613,�k�k��,2.6,��
2021/03/31,20:20,0.627,0.916,0.582,1.127,0.800,0.370,0.651,0.610,�k�k��,2.6,��
2021/03/31,20:30,0.625,0.920,0.586,1.128,0.801,0.371,0.650,0.612,�k�k��,2.8,��
2021/03/31,20:40,0.625,0.917,0.582,1.127,0.801,0.371,0.651,0.611,�k��,2.6,��
2021/03/31,20:50,0.626,0.916,0.584,1.127,0.801,0.371,0.649,0.611,�k��,2.9,��
2021/03/31,21:00,0.627,0.917,0.584,1.130,0.800,0.371,0.651,0.611,�k��,3.6,��
2021/03/31,21:10,0.626,0.916,0.584,1.126,0.801,0.371,0.651,0.610,�k��,4.2,��
2021/03/31,21:20,0.625,0.917,0.583,1.127,0.801,0.370,0.651,0.610,�k��,4.4,��
2021/03/31,21:30,0.625,0.917,0.584,1.127,0.800,0.370,0.650,0.612,���k��,3.0,��
2021/03/31,21:40,0.625,0.918,0.583,1.128,0.800,0.372,0.650,0.611,���k��,3.5,��
2021/03/31,21:50,0.626,0.915,0.584,1.127,0.800,0.371,0.650,0.612,�k��,3.7,��
2021/03/31,22:00,0.628,0.914,0.584,1.130,0.799,0.372,0.651,0.611,�k�k��,4.5,��
2021/03/31,22:10,0.625,0.918,0.582,1.129,0.801,0.370,0.652,0.611,�k��,4.2,��
2021/03/31,22:20,0.625,0.916,0.583,1.129,0.801,0.371,0.651,0.611,�k�k��,3.6,��
2021/03/31,22:30,0.625,0.915,0.584,1.129,0.802,0.371,0.651,0.613,�k�k��,4.9,��
2021/03/31,22:40,0.625,0.915,0.583,1.128,0.800,0.371,0.649,0.612,�k�k��,6.4,��
2021/03/31,22:50,0.624,0.917,0.583,1.127,0.801,0.370,0.651,0.611,�k�k��,5.9,��
2021/03/31,23:00,0.626,0.918,0.583,1.128,0.800,0.370,0.651,0.612,�k�k��,5.7,��
2021/03/31,23:10,0.625,0.916,0.582,1.128,0.802,0.370,0.650,0.610,�k�k��,5.1,��
2021/03/31,23:20,0.624,0.915,0.583,1.130,0.800,0.371,0.653,0.611,�k�k��,5.2,��
2021/03/31,23:30,0.625,0.916,0.584,1.128,0.802,0.371,0.652,0.611,�k�k��,6.0,��
2021/03/31,23:40,0.625,0.918,0.584,1.129,0.800,0.369,0.651,0.612,�k��,5.9,��
2021/03/31,23:50,0.625,0.915,0.582,1.130,0.800,0.372,0.651,0.611,�k��,5.3,��
